Flag for Germany Weather past 2 weeks in Baden-Baden, Baden-Württemberg, Germany

Now
61 °F

Sprinkles. Passing clouds.


Feels Like: 61 °F
Forecast: 54 / 68 °F
Wind: 6 mph from West

Location: Karlsruhe - Baden Wurttemberg

Current Time: Jul 29, 2015 at 12:24:20 AM

Latest Report: Jul 28, 2015 at 10:50 PM


Visibility: N/A

Pressure: 29.92 "Hg

Humidity: 63%

Dew point: 48 °F

Location of Baden-BadenLocation

Historic Weather in Baden-Baden — Graph

°F

Baden-Baden temperature yesterday

Maximum temperature yesterday: 72 °F (at 1:20 PM)
Minimum temperature yesterday: 61 °F (at 10:50 PM)
Average temperature yesterday: 67 °F

Past Weeks' High & Low Weather Summary

 TemperatureHumidityPressure
High95 °F (Jul 17, 6:50 PM)94% (Jul 18, 6:20 AM)30.15 "Hg (Jul 18, 6:20 AM)
Low46 °F (Jul 26, 6:50 AM)17% (Jul 16, 5:20 PM)29.65 "Hg (Jul 24, 8:20 PM)
Average75 °F52%29.94 "Hg
* Reported Jul 13 10:20 PM — Jul 28 10:50 PM, Baden-Baden, Weather by CustomWeather, © 2015

Note: Actual official high and low records may vary slightly from our data, if they occured in-between our weather recording intervals... More about our weather records

Advertising

Baden-Baden weather history for previous 24 hours

 ConditionsComfort  
Time TempWeatherWind HumidityBarometerVisibility
10:50 PM
Tue, Jul 28
61 °FSprinkles. Passing clouds.6 mph63%29.92 "HgN/A
10:20 PM63 °FSprinkles. Passing clouds.8 mph56%29.89 "HgN/A
9:50 PM64 °FPassing clouds.7 mph46%29.89 "HgN/A
9:20 PM66 °FPassing clouds.7 mph43%29.86 "HgN/A
8:50 PM66 °FPassing clouds.7 mph40%29.86 "HgN/A
8:20 PM66 °FPassing clouds.6 mph43%29.86 "HgN/A
7:50 PM68 °FPassing clouds.5 mph40%29.83 "HgN/A
7:20 PM68 °FPassing clouds.7 mph40%29.83 "HgN/A
6:50 PM68 °FPassing clouds.5 mph40%29.83 "HgN/A
6:20 PM70 °FPassing clouds.7 mph38%29.80 "HgN/A
5:50 PM70 °FPassing clouds.9 mph38%29.80 "HgN/A
5:20 PM70 °FPassing clouds.8 mph38%29.83 "HgN/A
4:50 PM72 °FPassing clouds.10 mph36%29.80 "HgN/A
4:20 PM72 °FPassing clouds.12 mph36%29.83 "HgN/A
3:50 PM72 °FPassing clouds.10 mph36%29.83 "HgN/A
3:20 PM72 °FPassing clouds.12 mph36%29.83 "HgN/A
2:50 PM72 °FPassing clouds.15 mph38%29.83 "HgN/A
2:20 PM72 °FPassing clouds.10 mph38%29.83 "HgN/A
1:50 PM70 °FScattered clouds.13 mph38%29.83 "HgN/A
1:20 PM72 °FPassing clouds.9 mph41%29.83 "HgN/A
12:50 PM70 °FPassing clouds.13 mph40%29.86 "HgN/A
12:20 PM68 °FScattered clouds.12 mph46%29.86 "HgN/A
11:20 AM64 °FPartly sunny.12 mph49%29.86 "HgN/A
10:50 AM64 °FPartly sunny.13 mph49%29.86 "HgN/A
10:20 AM64 °FPartly sunny.12 mph49%29.86 "HgN/A
9:50 AM64 °FLight rain. Broken clouds.9 mph52%29.86 "HgN/A
9:20 AM64 °FBroken clouds.9 mph56%29.83 "HgN/A
8:50 AM64 °FBroken clouds.9 mph56%29.83 "HgN/A
8:20 AM64 °FBroken clouds.9 mph56%29.83 "HgN/A
7:50 AM64 °FBroken clouds.8 mph56%29.83 "HgN/A
7:20 AM64 °FPartly sunny.9 mph52%29.83 "HgN/A
6:50 AM64 °FPassing clouds.10 mph52%29.80 "HgN/A
6:20 AM64 °FPassing clouds.9 mph52%29.80 "HgN/A
5:50 AM66 °FPassing clouds.10 mph49%29.80 "HgN/A
5:20 AM66 °FPassing clouds.9 mph49%29.80 "HgN/A
4:50 AM66 °FPassing clouds.12 mph46%29.80 "HgN/A
4:20 AM66 °FClear.13 mph49%29.77 "Hg10 mi
12:20 AM66 °FClear.7 mph52%29.77 "Hg10 mi
Weather by CustomWeather, © 2015

See weather overviewHow to use our weather pages